Weather in Onna

Japan     26°29′40″N   127°52′30″E
temp.,
°C
wind,
m/s
gust,
m/s
humid.,
%
clouds,
%
prec.,
mm/h
press.,
hPa
HPBL,
m
28 november, sun
sun2800:00+21ene9125686 0.0 10251546
03:00+20ene9125699 0.0 10251460
06:00+20ene91257100 0.0 10251665
09:00+21e81155100 0.0 10271934
12:00+22e81053100 0.0 10262092
15:00+22e81055100 0.1 10231979
18:00+21e81059100 0.1 10241438
21:00+21e81063100 0.3 10251424
29 november, mon
mon2900:00+20e81062100 0.3 10241432
03:00+20e81065100 0.5 10221237
06:00+20e81065100 0.2 10221192
09:00+21e7963100 0.3 10241244
12:00+22e7863100 0.0 10221381
15:00+21e7869100 0.6 10201073
18:00+21e6972100 0.2 1020953
21:00+21e71074100 0.8 1021874
30 november, tue
tue3000:00+22e81070100 0.2 10191192
03:00+22ese71072100 0.8 10181022
06:00+21ese797491 0.4 1017847
09:00+23ese797079 0.6 10171122
12:00+24se7966100 0.1 10151221
15:00+21sse6987100 1.9 1013672
18:00+20nw81292100 10.0 1014955
21:00+18nnw101484100 12.8 10161087
1 december, wed
wed100:00+18nnw101378100 1.8 10171194
03:00+17n91366100 1.9 10171373
06:00+16n9136450 0.0 10191394
09:00+16n81266100 0.0 10211535
12:00+17n8126160 0.0 10201616
15:00+16n81264100 0.1 10191637
18:00+16n81263100 0.0 10201544
21:00+16nne71059100 0.1 10221424
2 december, thu
thu200:00+16nne696884 0.1 10211021
03:00+16nne5869100 0.2 1020895
06:00+16nne5869100 0.2 1019837
09:00+17nne4764100 0.3 10211117
12:00+18nne445684 0.1 10201591
15:00+17ne356579 0.3 1019691
18:00+16nne36715 0.1 1020565
21:00+16nne346935 0.1 1021481